Lafayette, LA

5:03 PM CDT on May 26, 2017 (GMT -0500)
Lafayette Regional

Weather History for KLFT - October, 2012

Change the Weather History Date:

Thursday, October 11, 2012

  Actual Average Record
Temperature  
Mean Temperature 75 °F 72 °F  
Max Temperature 86 °F 82 °F 94 °F (1926)
Min Temperature 64 °F 61 °F 39 °F (2000)
Degree Days  
Heating Degree Days 0 1  
Month to date heating degree days 8 2  
Since 1 July heating degree days 8 3  
Cooling Degree Days 10 7  
Month to date cooling degree days 63 95  
Year to date cooling degree days 2935 2783  
Growing Degree Days 25 (Base 50)    
Moisture  
Dew Point 65 °F    
Average Humidity 73    
Maximum Humidity 100    
Minimum Humidity 45    
Precipitation  
Precipitation 0.00 in 0.16 in 2.11 in (1977)
Month to date precipitation T 1.64  
Year to date precipitation 57.65 46.98  
Snow  
Snow 0.00 in 0.00 in 0.00 in ()
Month to date snowfall 0.0 0.0  
Since 1 July snowfall 0.0 0.0  
Since 1 September snowfall 0.0 0.0  
Snow Depth 0.00 in    
Sea Level Pressure  
Sea Level Pressure 30.17 in    
Wind  
Wind Speed 2 mph (SSE)    
Max Wind Speed 8 mph    
Max Gust Speed 13 mph    
Visibility 6 miles    
Events Fog    
T = Trace of Precipitation, MM = Missing Value Source: NWS Daily Summary

Daily Weather History Graph

Daily Weather History Graph

Search for Another Location

Airport or City:

Trip Planner

Search our weather history database for the weather conditions in past years. The results will help you decide how hot, cold, wet, or windy it might be!

Date:

Astronomy

Oct. 11, 2012 Rise Set
Actual Time 7:07 AM CDT 6:40 PM CDT
Civil Twilight 6:43 AM CDT 7:04 PM CDT
Nautical Twilight 6:15 AM CDT 7:32 PM CDT
Astronomical Twilight 5:48 AM CDT 8:00 PM CDT
Moon 3:03 AM CDT (10/11) 4:03 PM CDT (10/11)
Length of Visible Light 12h 21m
Length of Day
11h 33m
Waning Crescent, 18% of the Moon is Illuminated
Oct 11
Waning Crescent
Oct 15
New
Oct 21
First Quarter
Oct 29
Full
Nov 6
Last Quarter

Hourly Weather History & Observations

Time (CDT) Temp. Heat Index Dew Point Humidity Pressure Visibility Wind Dir Wind Speed Gust Speed Precip Events Conditions
12:53 AM 70.0 °F - 66.0 °F 87% 30.15 in 8.0 mi Calm Calm - N/A   Overcast
1:53 AM 69.1 °F - 66.0 °F 90% 30.15 in 6.0 mi Calm Calm - N/A   Overcast
2:53 AM 66.9 °F - 64.9 °F 93% 30.14 in 4.0 mi Calm Calm - N/A   Clear
3:20 AM 66.2 °F - 64.4 °F 94% 30.14 in 2.5 mi Calm Calm - N/A   Scattered Clouds
3:22 AM 66.2 °F - 64.4 °F 94% 30.14 in 1.2 mi Calm Calm - N/A   Mostly Cloudy
3:24 AM 66.2 °F - 64.4 °F 94% 30.14 in 0.8 mi Calm Calm - N/A   Mist
3:35 AM 66.2 °F - 66.2 °F 100% 30.14 in 0.2 mi Calm Calm - N/A Fog Fog
3:53 AM 66.9 °F - 66.0 °F 97% 30.14 in 0.2 mi Calm Calm - N/A Fog Fog
4:53 AM 66.0 °F - 64.9 °F 96% 30.14 in 0.2 mi Calm Calm - 0.01 in Fog Fog
5:10 AM 64.4 °F - 64.4 °F 100% 30.15 in 0.5 mi Calm Calm - N/A Fog Fog
5:23 AM 64.4 °F - 64.4 °F 100% 30.15 in 0.2 mi Calm Calm - N/A Fog Fog
5:53 AM 64.9 °F - 64.0 °F 97% 30.16 in 0.2 mi Calm Calm - N/A Fog Fog
6:22 AM 64.4 °F - 64.4 °F 100% 30.16 in 0.5 mi Calm Calm - N/A Fog Fog
6:29 AM 64.4 °F - 64.4 °F 100% 30.17 in 0.2 mi Calm Calm - N/A Fog Fog
6:53 AM 64.9 °F - 63.0 °F 93% 30.17 in 0.2 mi Calm Calm - N/A Fog Fog
7:27 AM 64.4 °F - 64.4 °F 100% 30.18 in 2.0 mi Calm Calm - N/A   Mostly Cloudy
7:36 AM 64.4 °F - 64.4 °F 100% 30.18 in 2.5 mi Calm Calm - N/A   Scattered Clouds
7:49 AM 64.4 °F - 64.4 °F 100% 30.19 in 3.0 mi Calm Calm - N/A   Clear
7:53 AM 64.9 °F - 64.0 °F 97% 30.19 in 3.0 mi Calm Calm - N/A   Clear
8:53 AM 71.1 °F - 66.0 °F 84% 30.20 in 10.0 mi Calm Calm - N/A   Clear
9:53 AM 75.9 °F - 64.9 °F 69% 30.22 in 10.0 mi Variable 3.5 mph - N/A   Clear
10:53 AM 80.1 °F 81.5 °F 63.0 °F 56% 30.23 in 10.0 mi Variable 4.6 mph - N/A   Clear
11:53 AM 82.9 °F 84.0 °F 63.0 °F 51% 30.22 in 10.0 mi Variable 5.8 mph - N/A   Clear
12:53 PM 84.9 °F 85.4 °F 62.1 °F 46% 30.20 in 10.0 mi SSE 4.6 mph - N/A   Clear
1:53 PM 86.0 °F 86.3 °F 62.1 °F 44% 30.17 in 10.0 mi SE 4.6 mph - N/A   Clear
2:53 PM 86.0 °F 86.3 °F 62.1 °F 44% 30.16 in 10.0 mi Variable 4.6 mph - N/A   Clear
3:53 PM 86.0 °F 86.8 °F 63.0 °F 46% 30.14 in 10.0 mi Variable 4.6 mph - N/A   Partly Cloudy
4:53 PM 84.2 °F 85.0 °F 62.6 °F 48% 30.14 in 10.0 mi Variable 5.8 mph - N/A   Clear
5:53 PM 82.4 °F 83.9 °F 64.4 °F 54% 30.14 in 10.0 mi Calm Calm - N/A   Partly Cloudy
6:53 PM 78.1 °F - 66.9 °F 68% 30.16 in 10.0 mi South 5.8 mph - N/A   Mostly Cloudy
7:53 PM 75.2 °F - 66.2 °F 73% 30.17 in 10.0 mi Calm Calm - N/A   Clear
8:53 PM 72.0 °F - 66.9 °F 84% 30.18 in 10.0 mi Calm Calm - N/A   Clear
9:53 PM 71.1 °F - 66.0 °F 84% 30.20 in 10.0 mi Calm Calm - N/A   Clear
10:53 PM 70.0 °F - 66.9 °F 90% 30.20 in 8.0 mi Calm Calm - N/A   Clear
11:53 PM 69.1 °F - 66.0 °F 90% 30.19 in 8.0 mi Calm Calm - N/A   Clear